Location: Borz?cin
(51.1714°N, 19.6030°E)
Time: 22:21:36
(UTC+00:00)

Cosmos 1151 Rocket - Pass Details

Date: 19 May 2025
Orbit: 586 x 607 km, 82.5° (Epoch: 16 June)

Event Time Altitude Azimuth Distance (km) Brightness Sun altitude
Exits shadow 22:19:32 45° 169° (SSE) 809 3.2 -18.7°
Maximum altitude 22:20:45 73° 98° (E) 620 2.9 -18.7°
Drops below altitude 10° 22:24:58 10° 14° (NNE) 1,923 6.7 -18.8°
Sets 22:27:11 0° 12° (NNE) 2,828 7.9 -18.8°
